Siloam Springs, AR

4:03 AM CST on December 11, 2017 (GMT -0600)
Smith

Weather History for KSLG - December, 2012

Change the Weather History Date:

Saturday, December 1, 2012

  Actual Average Record
Temperature  
Mean Temperature 61 °F -  
Max Temperature 69 °F 51 °F 69 °F (2012)
Min Temperature 53 °F 34 °F 15 °F (2006)
Degree Days  
Heating Degree Days 4    
Growing Degree Days 11 (Base 50)    
Moisture  
Dew Point 54 °F    
Average Humidity 71    
Maximum Humidity 82    
Minimum Humidity 60    
Precipitation  
Precipitation 0.00 in - - ()
Sea Level Pressure  
Sea Level Pressure 29.99 in    
Wind  
Wind Speed 14 mph (South)    
Max Wind Speed 30 mph    
Max Gust Speed 41 mph    
Visibility 10 miles    
Events      
Averages and records for this station are not official NWS values.
T = Trace of Precipitation, MM = Missing Value Source: NWS Daily Summary

Daily Weather History Graph

Daily Weather History Graph

Search for Another Location

Airport or City:

Trip Planner

Search our weather history database for the weather conditions in past years. The results will help you decide how hot, cold, wet, or windy it might be!

Date:

Astronomy

Dec. 01, 2012 Rise Set
Actual Time 7:10 AM CST 5:03 PM CST
Civil Twilight 6:42 AM CST 5:31 PM CST
Nautical Twilight 6:10 AM CST 6:03 PM CST
Astronomical Twilight 5:39 AM CST 6:34 PM CST
Moon 7:52 PM CST (12/1) 9:25 AM CST (12/1)
Length of Visible Light 10h 48m
Length of Day
9h 52m
Waning Gibbous, 91% of the Moon is Illuminated
Dec 1
Waning Gibbous
Dec 6
Last Quarter
Dec 13
New
Dec 19
First Quarter
Dec 28
Full

Hourly Weather History & Observations

Time (CST) Temp. Dew Point Humidity Pressure Visibility Wind Dir Wind Speed Gust Speed Precip Events Conditions
12:16 AM 55.4 °F 48.2 °F 77% 30.08 in 6.0 mi SSE 6.9 mph - N/A   Partly Cloudy
12:35 AM 53.6 °F 48.2 °F 82% 30.08 in 5.0 mi SSE 6.9 mph - N/A   Clear
12:55 AM 55.4 °F 48.2 °F 77% 30.07 in 6.0 mi SSE 5.8 mph - N/A   Clear
1:35 AM 55.4 °F 50.0 °F 82% 30.07 in 8.0 mi SSE 8.1 mph - N/A   Clear
1:55 AM 57.2 °F 50.0 °F 77% 30.06 in 9.0 mi SSE 8.1 mph - N/A   Clear
2:15 AM 57.2 °F 50.0 °F 77% 30.06 in 9.0 mi SSE 9.2 mph - N/A   Clear
2:36 AM 57.2 °F 51.8 °F 82% 30.06 in 10.0 mi SSE 11.5 mph - N/A   Clear
2:55 AM 57.2 °F 51.8 °F 82% 30.05 in 10.0 mi SSE 13.8 mph - N/A   Clear
3:15 AM 57.2 °F 51.8 °F 82% 30.06 in 10.0 mi SSE 12.7 mph - N/A   Clear
3:55 AM 57.2 °F 51.8 °F 82% 30.04 in 10.0 mi SSE 16.1 mph 20.7 mph N/A   Partly Cloudy
4:15 AM 59.0 °F 51.8 °F 77% 30.03 in 10.0 mi South 13.8 mph 24.2 mph N/A   Partly Cloudy
4:35 AM 60.8 °F 53.6 °F 77% 30.04 in 10.0 mi South 11.5 mph 17.3 mph N/A   Mostly Cloudy
4:55 AM 60.8 °F 53.6 °F 77% 30.04 in 10.0 mi South 9.2 mph - N/A   Overcast
5:15 AM 60.8 °F 53.6 °F 77% 30.04 in 10.0 mi South 12.7 mph - N/A   Overcast
5:35 AM 60.8 °F 53.6 °F 77% 30.04 in 10.0 mi South 8.1 mph - N/A   Overcast
6:16 AM 60.8 °F 53.6 °F 77% 30.03 in 10.0 mi South 12.7 mph 17.3 mph N/A   Overcast
6:35 AM 60.8 °F 53.6 °F 77% 30.03 in 10.0 mi South 17.3 mph 21.9 mph N/A   Overcast
6:55 AM 60.8 °F 53.6 °F 77% 30.03 in 10.0 mi South 13.8 mph - N/A   Overcast
7:15 AM 60.8 °F 53.6 °F 77% 30.03 in 10.0 mi South 18.4 mph 24.2 mph N/A   Overcast
7:36 AM 60.8 °F 53.6 °F 77% 30.03 in 9.0 mi South 16.1 mph 23.0 mph N/A   Overcast
7:55 AM 60.8 °F 53.6 °F 77% 30.03 in 9.0 mi South 13.8 mph - N/A   Overcast
8:15 AM 60.8 °F 53.6 °F 77% 30.03 in 9.0 mi South 16.1 mph 21.9 mph N/A   Overcast
8:55 AM 62.6 °F 53.6 °F 72% 30.03 in 10.0 mi South 19.6 mph 25.3 mph N/A   Overcast
9:15 AM 62.6 °F 55.4 °F 77% 30.03 in 10.0 mi South 17.3 mph 24.2 mph N/A   Overcast
9:55 AM 64.4 °F 55.4 °F 73% 30.02 in 10.0 mi South 18.4 mph 26.5 mph N/A   Overcast
10:15 AM 64.4 °F 55.4 °F 73% 30.02 in 10.0 mi South 21.9 mph 28.8 mph N/A   Overcast
10:35 AM 66.2 °F 55.4 °F 68% 30.01 in 10.0 mi South 25.3 mph 31.1 mph N/A   Overcast
11:15 AM 66.2 °F 55.4 °F 68% 29.99 in 10.0 mi South 24.2 mph 32.2 mph N/A   Overcast
11:35 AM 66.2 °F 55.4 °F 68% 29.98 in 10.0 mi South 24.2 mph 33.4 mph N/A   Overcast
12:15 PM 68.0 °F 55.4 °F 64% 29.95 in 10.0 mi South 25.3 mph 36.8 mph N/A   Overcast
12:35 PM 69.8 °F 57.2 °F 64% 29.94 in 10.0 mi South 26.5 mph 39.1 mph N/A   Overcast
12:55 PM 69.8 °F 57.2 °F 64% 29.93 in 10.0 mi South 23.0 mph 34.5 mph N/A   Overcast
1:15 PM 69.8 °F 57.2 °F 64% 29.93 in 10.0 mi South 21.9 mph 31.1 mph N/A   Overcast
1:16 PM 69.8 °F 57.2 °F 64% 29.93 in 10.0 mi South 25.3 mph 31.1 mph N/A   Overcast
1:35 PM 69.8 °F 57.2 °F 64% 29.92 in 10.0 mi South 25.3 mph 33.4 mph N/A   Overcast
1:55 PM 69.8 °F 57.2 °F 64% 29.92 in 10.0 mi South 20.7 mph 27.6 mph N/A   Overcast
2:16 PM 69.8 °F 57.2 °F 64% 29.91 in 10.0 mi South 29.9 mph 35.7 mph N/A   Overcast
2:35 PM 69.8 °F 55.4 °F 60% 29.91 in 10.0 mi South 26.5 mph 41.4 mph N/A   Overcast
2:55 PM 69.8 °F 55.4 °F 60% 29.92 in 10.0 mi South 17.3 mph 26.5 mph N/A   Overcast
3:15 PM 69.8 °F 55.4 °F 60% 29.91 in 10.0 mi South 23.0 mph 33.4 mph N/A   Overcast
3:35 PM 69.8 °F 55.4 °F 60% 29.91 in 10.0 mi South 21.9 mph 32.2 mph N/A   Overcast
4:15 PM 69.8 °F 55.4 °F 60% 29.91 in 10.0 mi South 16.1 mph 28.8 mph N/A   Scattered Clouds
4:55 PM 66.2 °F 55.4 °F 68% 29.91 in 10.0 mi South 19.6 mph 26.5 mph N/A   Clear
5:15 PM 66.2 °F 55.4 °F 68% 29.91 in 10.0 mi South 16.1 mph 26.5 mph N/A   Clear
5:55 PM 66.2 °F 55.4 °F 68% 29.92 in 10.0 mi South 16.1 mph 24.2 mph N/A   Clear
6:15 PM 66.2 °F 55.4 °F 68% 29.92 in 10.0 mi South 17.3 mph 26.5 mph N/A   Clear
6:35 PM 66.2 °F 55.4 °F 68% 29.93 in 10.0 mi South 16.1 mph 23.0 mph N/A   Clear
7:16 PM 66.2 °F 55.4 °F 68% 29.95 in 10.0 mi South 15.0 mph - N/A   Clear
7:35 PM 66.2 °F 55.4 °F 68% 29.96 in 10.0 mi South 16.1 mph - N/A   Clear
7:55 PM 66.2 °F 55.4 °F 68% 29.97 in 10.0 mi South 16.1 mph 23.0 mph N/A   Partly Cloudy
8:15 PM 66.2 °F 55.4 °F 68% 29.97 in 10.0 mi South 17.3 mph - N/A   Partly Cloudy
8:35 PM 66.2 °F 55.4 °F 68% 29.97 in 10.0 mi South 13.8 mph - N/A   Scattered Clouds
8:55 PM 66.2 °F 55.4 °F 68% 29.98 in 10.0 mi South 13.8 mph - N/A   Scattered Clouds
9:16 PM 66.2 °F 55.4 °F 68% 29.98 in 10.0 mi South 13.8 mph - N/A   Partly Cloudy
9:35 PM 64.4 °F 55.4 °F 73% 29.98 in 10.0 mi South 12.7 mph - N/A   Clear
10:35 PM 64.4 °F 55.4 °F 73% 29.98 in 10.0 mi South 13.8 mph 19.6 mph N/A   Clear
10:55 PM 64.4 °F 55.4 °F 73% 29.98 in 10.0 mi South 13.8 mph - N/A   Clear
11:15 PM 64.4 °F 55.4 °F 73% 29.98 in 10.0 mi South 15.0 mph 20.7 mph N/A   Clear
11:36 PM 64.4 °F 55.4 °F 73% 29.99 in 10.0 mi South 11.5 mph - N/A   Clear